Regional Weather Roundup
Issued by NWS Nashville, TN

Home | Current Version | Previous Version | Text Only | Print | Product List | Glossary On
Versions: 1 2 3 4 5 6 7 8 9 10 11 12 13 14 15 16 17 18 19 20 21 22 23 24 25 26 27 28
000
ASUS44 KOHX 151110
RWROHX
MIDDLE TENNESSEE HOURLY WEATHER ROUNDUP
NATIONAL WEATHER SERVICE NASHVILLE TN
500 AM CST FRI DEC 15 2017

NOTE: "FAIR" INDICATES FEW OR NO CLOUDS BELOW 12,000 FEET WITH
NO SIGNIFICANT WEATHER AND/OR OBSTRUCTIONS TO VISIBILITY.

* THESE REPORTS ARE NOT UNDER NWS QUALITY CONTROL AND MAY NOT
  REPORT WEATHER SUCH AS PRECIPITATION AND FOG.


TNZ005>011-023>034-057-059-062>066-078-080-151200
...NORTHERN MIDDLE TENNESSEE...

CITY           SKY/WX    TMP DP  RH WIND       PRES   REMARKS
CLARKSVILLE    CLOUDY    31  21  66 W5        30.10R WCI  26
CROSSVILLE     CLOUDY    25  22  88 W5        29.99R WCI  19
GALLATIN       CLOUDY    32  23  69 VRB5      30.10S WCI  27
DICKSON          N/A     29  21  71 W3        30.08R
NASHVILLE      CLOUDY    33  20  58 NW8       30.09R WCI  26
PORTLAND       CLOUDY    30  21  69 W5        30.06S WCI  25
SMYRNA         CLOUDY    32  21  64 N8        30.10R WCI  25
SPARTA         CLOUDY    30  25  80 CALM      30.04R
SPRINGFIELD    CLOUDY    30  21  69 NW3       30.06S
WEST NASHVILLE CLOUDY    32  21  64 NW6       30.08R WCI  26
$$
TNZ056-058-060-061-075>077-079-093>097-151200
...SOUTHERN MIDDLE TENNESSEE...

CITY           SKY/WX    TMP DP  RH WIND       PRES   REMARKS
COLUMBIA       CLOUDY    27  25  93 CALM      30.08R FOG
FAYETTEVILLE   MOCLDY    25  25 100 CALM      30.06S
MCMINNVILLE    CLOUDY    28  23  80 CALM      30.05S
MURFREESBORO   CLOUDY    31  23  72 CALM      30.08R
PULASKI        CLOUDY    23  21  93 CALM      30.09S
SHELBYVILLE    CLOUDY    28  25  86 CALM      30.08R
TULLAHOMA      CLOUDY    27  21  80 CALM      30.05S
WINCHESTER     CLOUDY    27  21  80 NW3       30.06S
$$


...KEY TO REMARKS...
VSB - VISIBILITY IN MILES
WCI - WIND CHILL INDEX
HX  - HEAT INDEX





USA.gov is the U.S. government's official web portal to all federal, state and local government web resources and services.